Location: Centerville
(32.8776°N, 96.6203°W)
Time: 04:55:52
(UTC+00:00)

Cosmos 1606 - Pass Details

Date: 17 June 2021
Orbit: 501 x 527 km, 82.5° (Epoch: 29 July)

Event Time Altitude Azimuth Distance (km) Brightness Sun altitude
Rises 08:05:38 0° 3° (N) 2,642 7.3 -29.1°
Reaches altitude 10° 08:07:54 10° 12° (NNE) 1,746 6.3 -28.8°
Enters shadow 08:10:23 30° 44° (NE) 944 4.5 -28.6°
